Weather History for Wooster, OH

Change the Weather History Date:

Sunday, May 19, 2013

  Actual Average Record
Temperature  
Mean Temperature 70 °F -  
Max Temperature 82 °F 67 °F 88 °F (1998)
Min Temperature 60 °F 46 °F 32 °F (2002)
Cooling Degree Days 6    
Growing Degree Days 20 (Base 50)    
Moisture  
Dew Point 60 °F    
Average Humidity 73    
Maximum Humidity 93    
Minimum Humidity 52    
Precipitation  
Precipitation 0.00 in - - ()
Sea Level Pressure  
Sea Level Pressure 30.01 in    
Wind  
Wind Speed 7 mph (SSE)    
Max Wind Speed 13 mph    
Max Gust Speed 18 mph    
Visibility 9 miles    
Events      
Averages and records for this station are not official NWS values.
T = Trace of Precipitation, MM = Missing Value Source: NWS Daily Summary

Daily Weather History Graph

Daily Weather History Graph

Search for Another Location

Airport:

Trip Planner

Search our weather history database for the weather conditions in past years. The results will help you decide how hot, cold, wet, or windy it might be!

Date:

Astronomy

May. 19, 2013 Rise Set
Actual Time 6:06 AM EDT 8:42 PM EDT
Civil Twilight 5:34 AM EDT 9:14 PM EDT
Nautical Twilight 4:55 AM EDT 9:53 PM EDT
Astronomical Twilight 4:10 AM EDT 10:38 PM EDT
Moon 2:42 PM EDT (5/19) 2:31 AM EDT (5/19)
Length of Visible Light 15h 39m
Length of Day
14h 36m
Waxing Gibbous, 65% of the Moon is Illuminated
May 19
Waxing Gibbous
May 25
Full
May 31
Last Quarter
Jun 8
New
Jun 16
First Quarter

Hourly Weather History & Observations

Time (EDT) Temp. Heat Index Dew Point Humidity Pressure Visibility Wind Dir Wind Speed Gust Speed Precip Events Conditions
12:56 AM 61.0 °F - 55.0 °F 81% 30.04 in 8.0 mi ESE 3.5 mph - N/A   Clear
1:56 AM 63.0 °F - 57.9 °F 84% 30.03 in 8.0 mi SE 3.5 mph - N/A   Clear
2:56 AM 62.1 °F - 59.0 °F 90% 30.01 in 8.0 mi SE 5.8 mph - N/A   Clear
3:56 AM 62.1 °F - 57.9 °F 86% 30.01 in 8.0 mi SE 8.1 mph - N/A   Clear
4:56 AM 60.1 °F - 57.9 °F 93% 30.03 in 7.0 mi SE 4.6 mph - N/A   Clear
5:56 AM 60.1 °F - 57.9 °F 93% 30.04 in 6.0 mi SE 6.9 mph - N/A   Clear
6:56 AM 61.0 °F - 59.0 °F 93% 30.06 in 3.0 mi SE 5.8 mph - N/A   Clear
7:56 AM 64.0 °F - 60.1 °F 87% 30.07 in 5.0 mi SE 8.1 mph - N/A   Clear
8:56 AM 68.0 °F - 61.0 °F 78% 30.07 in 9.0 mi South 6.9 mph - N/A   Clear
9:56 AM 71.1 °F - 62.1 °F 73% 30.05 in 10.0 mi SSE 9.2 mph - N/A   Clear
10:56 AM 73.9 °F - 62.1 °F 66% 30.04 in 10.0 mi SSE 8.1 mph - N/A   Clear
11:56 AM 77.0 °F - 62.1 °F 60% 30.02 in 10.0 mi SE 11.5 mph 18.4 mph N/A   Partly Cloudy
12:56 PM 79.0 °F - 62.1 °F 56% 30.02 in 10.0 mi South 12.7 mph - N/A   Partly Cloudy
2:56 PM 80.1 °F 81.2 °F 62.1 °F 54% 29.98 in 10.0 mi SSE 11.5 mph 18.4 mph N/A   Mostly Cloudy
3:56 PM 79.0 °F - 61.0 °F 54% 29.98 in 10.0 mi SSW 9.2 mph - N/A   Mostly Cloudy
4:56 PM 81.0 °F 81.9 °F 62.1 °F 52% 29.97 in 10.0 mi SSW 11.5 mph - N/A   Mostly Cloudy
5:56 PM 80.1 °F 81.2 °F 62.1 °F 54% 29.96 in 10.0 mi South 9.2 mph - N/A   Partly Cloudy
6:56 PM 78.1 °F - 61.0 °F 56% 29.96 in 10.0 mi SSE 9.2 mph - N/A   Clear
7:56 PM 75.9 °F - 62.1 °F 62% 29.96 in 10.0 mi SSE 4.6 mph - N/A   Clear
8:56 PM 72.0 °F - 62.1 °F 71% 29.98 in 10.0 mi SSE 3.5 mph - N/A   Clear
9:56 PM 66.9 °F - 62.1 °F 84% 29.99 in 10.0 mi SE 4.6 mph - N/A   Clear
10:56 PM 66.0 °F - 60.1 °F 81% 29.99 in 10.0 mi SE 6.9 mph - N/A   Clear
11:56 PM 69.1 °F - 62.1 °F 78% 29.96 in 10.0 mi SSE 8.1 mph - N/A   Clear